GW3760 Weather Reports


Display with metric or nautical units.
time (UTC)temp
F
wind
direction
speed
MPH
gust
MPH
rain 1hr
in
rain 24hr
in
rain mn
in
humidity
%
barometer
mb
20260503174545 75 60 2.0 6.0 0.00 0.00 0.00 45 1011.4
20260503173013 74 84 2.0 6.0 0.00 0.00 0.00 46 1011.5
20260503171549 73 18 2.0 8.0 0.00 0.00 0.00 47 1011.6
20260503081539 56 181 0.0 0.0 0.00 0.00 0.00 87 1012.6
20260503071533 57 181 0.0 0.0 0.00 0.00 0.00 85 1012.6
20260503070111 58 181 0.0 0.0 0.00 0.00 0.00 84 1012.6
20260503060103 60 181 0.0 0.0 0.00 0.00 0.00 81 1012.8
20260503054540 60 181 0.0 0.0 0.00 0.00 0.00 80 1012.7
20260503053045 61 181 0.0 2.0 0.00 0.00 0.00 79 1012.5
20260503051515 61 181 0.0 3.0 0.00 0.00 0.00 77 1012.5
20260503050029 62 343 0.0 3.0 0.00 0.00 0.00 75 1012.5
20260503044508 63 76 1.0 7.0 0.00 0.00 0.00 75 1012.9
20260503043026 62 22 1.0 5.0 0.00 0.00 0.00 76 1012.2
20260503041523 62 9 1.0 2.0 0.00 0.00 0.00 76 1012.3
20260503040046 62 4 0.0 1.0 0.00 0.00 0.00 76 1012.6
20260503034517 63 4 0.0 1.0 0.00 0.00 0.00 74 1012.7
20260503033003 64 4 1.0 2.0 0.00 0.00 0.00 73 1012.5
20260503031530 64 4 2.0 4.0 0.00 0.00 0.00 72 1012.4
20260503030057 64 15 3.0 5.0 0.00 0.00 0.00 72 1012.2
20260503024515 64 60 1.0 3.0 0.00 0.00 0.00 71 1012.4
20260503023051 64 166 2.0 5.0 0.00 0.00 0.00 71 1012.7
20260503021536 65 196 3.0 14.0 0.00 0.00 0.00 70 1012.7
20260503020011 67 220 2.0 10.0 0.00 0.00 0.00 68 1012.7
20260503014532 68 162 2.0 5.0 0.00 0.00 0.00 64 1012.0
20260503013048 68 158 0.0 3.0 0.00 0.00 0.00 64 1011.9
20260503011530 68 220 0.0 5.0 0.00 0.00 0.00 64 1011.8
20260503010046 68 253 0.0 4.0 0.00 0.00 0.00 64 1011.8
20260503004505 69 183 2.0 5.0 0.00 0.00 0.00 63 1011.8
20260503003039 69 174 0.0 5.0 0.00 0.00 0.00 63 1011.7
20260503001512 68 179 3.0 7.0 0.00 0.00 0.00 63 1011.7
20260503000048 69 148 3.0 8.0 0.00 0.00 0.00 62 1011.8
20260502234531 69 179 1.0 9.0 0.00 0.00 0.00 61 1011.8
20260502233043 70 193 4.0 7.0 0.00 0.00 0.00 58 1012.1
20260502231517 71 295 0.0 7.0 0.00 0.00 0.00 57 1012.1
20260502230037 69 297 1.0 5.0 0.00 0.00 0.00 59 1012.2
20260502224554 68 198 2.0 4.0 0.00 0.00 0.00 59 1012.4
20260502223034 69 201 1.0 7.0 0.00 0.00 0.00 59 1012.6
20260502221550 68 185 2.0 5.0 0.00 0.00 0.00 61 1012.9
20260502220034 65 8 3.0 9.0 0.00 0.00 0.00 62 1013.1
20260502214554 66 195 1.0 8.0 0.00 0.00 0.00 63 1013.3
20260502213049 66 68 1.0 4.0 0.00 0.00 0.00 62 1013.5
20260502211518 66 179 3.0 6.0 0.00 0.00 0.00 62 1013.7
20260502210042 63 220 3.0 5.0 0.00 0.00 0.00 66 1013.9
20260502204605 62 331 2.0 6.0 0.00 0.00 0.00 68 1014.3
20260502204502 62 337 2.0 6.0 0.00 0.00 0.00 68 1014.3
20260502203024 62 299 1.0 6.0 0.00 0.00 0.00 71 1014.6
20260502201512 62 270 2.0 6.0 0.00 0.00 0.00 67 1014.8
20260502200018 59 266 1.0 8.0 0.00 0.00 0.00 72 1015.0
20260502194548 59 318 1.0 7.0 0.00 0.00 0.00 72 1015.0
20260502193004 59 186 2.0 4.0 0.00 0.00 0.00 73 1015.0
20260502191541 57 18 1.0 4.0 0.00 0.00 0.00 75 1015.4
20260502190050 56 289 0.0 3.0 0.00 0.00 0.00 76 1015.7
20260502184521 56 198 1.0 6.0 0.00 0.00 0.00 79 1015.8
20260502183040 54 322 1.0 4.0 0.00 0.00 0.00 80 1015.5
20260502181522 54 54 1.0 6.0 0.00 0.00 0.00 80 1015.7